Waarnemingen

Advertentie
Mijn weer
Lakaträsk, Zweden (2174): temperatuur & dauwpunt: 06.12.2017 07:00:00 - 12.12.2017 07:00:00 (CET)Lakaträsk, Zweden (2174): windsnelheid & windstoten: 06.12.2017 07:00:00 - 12.12.2017 07:00:00 (CET)Lakaträsk, Zweden (2174): windrichting: 06.12.2017 07:00:00 - 12.12.2017 07:00:00 (CET)Lakaträsk, Zweden (2174): luchtdruk: 06.12.2017 07:00:00 - 12.12.2017 07:00:00 (CET)Lakaträsk, Zweden (2174): zicht: 06.12.2017 07:00:00 - 12.12.2017 07:00:00 (CET)Lakaträsk, Zweden (2174): neerslag: 06.12.2017 07:00:00 - 12.12.2017 07:00:00 (CET)
Datum & Tijd tt [°C] td [°C] ff [km/u] ff [kn] fx [km/u] fx [kn] dd ppp [hPa] vv [km] rr [mm]
12.12.2017 07:00:00 -2,1 -2,9 9 5 16 9 OZO 1000,5 10 0,3
12.12.2017 06:00:00 -1,7 -2,3 5 3 16 9 OZO 1000,9 23 0,0
12.12.2017 05:00:00 -2,1 -2,5 3 2 9 5 ONO 1001,4 13 0,1
12.12.2017 04:00:00 -1,9 -2,3 3 2 10 5 O 1001,7 20 0,0
12.12.2017 03:00:00 -2,1 -2,7 3 2 9 5 ZO 1001,7 18 0,0
12.12.2017 02:00:00 -1,8 -2,5 4 2 12 6 OZO 1002,0 10 0,0
12.12.2017 01:00:00 -1,4 -2,2 6 3 14 8 ZO 1002,0 46 0,0
12.12.2017 00:00:00 -1,2 -1,6 6 3 13 7 ZO 1002,1 4,1 0,0
11.12.2017 23:00:00 -1,5 -1,8 5 3 11 6 O 1002,4 9 0,2
11.12.2017 22:00:00 -1,6 -1,6 4 2 8 5 O 1002,5 0,5 0,0
11.12.2017 21:00:00 -2,1 -2,4 2 1 6 3 ONO 1002,5 4,0 0,4
11.12.2017 20:00:00 -1,8 -2,1 3 2 9 5 OZO 1002,5 10 0,0
11.12.2017 19:00:00 -1,6 -2,0 0 0 8 4 N 1002,2 25 0,0
11.12.2017 18:00:00 -1,5 -1,9 4 2 9 5 ZO 1001,8 24 0,0
11.12.2017 17:00:00 -1,7 -2,3 2 1 7 4 OZO 1001,3 49 0,0
11.12.2017 16:00:00 -1,2 -1,9 3 2 9 5 ZO 1000,9 50 0,0
11.12.2017 15:00:00 -1,1 -1,5 5 3 10 5 ZO 1000,2 27 0,0
11.12.2017 14:00:00 -1,5 -1,8 3 1 9 5 OZO 999,9 1,5 0,3
11.12.2017 13:00:00 -1,2 -1,8 5 3 10 5 ZO 999,5 50 0,0
11.12.2017 12:00:00 -1,2 -1,6 4 2 10 5 ZO 999,4 50 0,0
11.12.2017 11:00:00 -1,5 -1,9 4 2 11 6 OZO 999,0 19 0,0
11.12.2017 10:00:00 -1,4 -2,0 6 3 13 7 OZO 998,6 9 0,0
11.12.2017 09:00:00 -1,5 -1,8 6 3 10 5 OZO 998,0 21 0,0
11.12.2017 08:00:00 -1,6 -2,0 4 2 16 8 OZO 997,5 21 0,1
11.12.2017 07:00:00 -1,5 -1,9 6 3 10 6 OZO 996,8 15 0,0
11.12.2017 06:00:00 -1,7 -2,0 5 3 11 6 O 996,3 4,6 0,5
11.12.2017 05:00:00 -1,9 -2,2 5 3 13 7 ONO 995,9 3,5 0,0
11.12.2017 04:00:00 -2,0 -2,3 6 3 13 7 ONO 995,8 15 0,1
11.12.2017 03:00:00 -2,1 -2,4 7 4 15 8 O 995,7 12 0,1
11.12.2017 02:00:00 -2,2 -2,6 7 4 14 7 O 995,6 6 0,1
11.12.2017 01:00:00 -2,1 -2,4 6 3 14 8 ONO 995,5 3,2 0,2
11.12.2017 00:00:00 -2,1 -2,5 5 3 15 8 ONO 995,4 5 0,0
10.12.2017 23:00:00 -2,0 -2,6 10 5 22 12 ONO 995,5 19 0,0
10.12.2017 22:00:00 -2,0 -2,6 10 6 19 11 O 995,4 14 0,0
10.12.2017 21:00:00 -1,8 -2,4 8 5 21 11 O 995,4 9 0,0
10.12.2017 20:00:00 -1,6 -2,2 9 5 22 12 O 995,3 33 0,0
10.12.2017 19:00:00 -1,4 -1,9 10 5 23 13 O 995,1 17 0,0
10.12.2017 18:00:00 -1,3 -1,7 11 6 27 15 O 995,1 2,3 0,3
10.12.2017 17:00:00 -1,2 -1,5 13 7 27 15 O 995,0 1,2 0,3
10.12.2017 16:00:00 -0,8 -1,2 10 5 27 14 O 994,8 3,6 0,2
10.12.2017 15:00:00 -0,6 -0,9 12 6 29 16 OZO 994,6 2,6 0,3
10.12.2017 14:00:00 -0,2 -0,6 14 8 29 15 OZO 994,3 3,0 0,3
10.12.2017 13:00:00 -0,1 -0,4 11 6 29 16 OZO 994,1 3,7 0,1
10.12.2017 12:00:00 0,1 -0,2 11 6 29 16 ZO 993,9 10 0,1
10.12.2017 11:00:00 0,2 0,1 11 6 30 16 ZO 993,8 9 0,1
10.12.2017 10:00:00 0,1 0,0 11 6 26 14 OZO 993,4 3,3 0,1
10.12.2017 09:00:00 -0,1 -0,2 14 8 29 15 OZO 992,8 2,5 0,1
10.12.2017 08:00:00 0,1 0,0 15 8 27 15 ZO 992,1 2,6 0,3
10.12.2017 07:00:00 0,2 0,1 13 7 27 14 OZO 991,7 2,6 0,3
10.12.2017 06:00:00 0,3 0,2 11 6 24 13 OZO 991,4 3,1 0,1
10.12.2017 05:00:00 0,3 0,2 11 6 26 14 OZO 991,4 3,6 0,2
10.12.2017 04:00:00 0,4 0,4 11 6 23 12 OZO 991,3 31 0,2
10.12.2017 03:00:00 0,3 0,2 9 5 21 12 OZO 991,1 7 0,3
10.12.2017 02:00:00 0,3 0,3 10 5 22 12 O 990,8 2,5 0,2
10.12.2017 01:00:00 0,3 0,3 12 6 22 12 OZO 990,7 4,3 0,2
10.12.2017 00:00:00 0,3 0,3 10 5 19 11 OZO 990,7 7 0,3
09.12.2017 23:00:00 0,2 0,2 8 5 17 9 O 990,5 6 0,4
09.12.2017 22:00:00 0,0 0,0 6 4 16 9 O 990,3 5 0,4
09.12.2017 21:00:00 0,1 0,1 6 3 14 7 O 989,9 50 0,1
09.12.2017 20:00:00 0,0 0,0 7 4 17 9 O 989,5 7 0,1
09.12.2017 19:00:00 -0,1 -0,1 8 4 16 9 O 989,2 2,9 0,2
09.12.2017 18:00:00 -0,2 -0,2 9 5 26 14 O 989,0 9 0,4
09.12.2017 17:00:00 -0,2 -0,2 10 5 25 14 O 988,8 3,8 0,0
09.12.2017 16:00:00 -0,1 -0,1 10 6 19 11 O 988,6 10 0,4
09.12.2017 15:00:00 0,0 0,0 9 5 25 13 O 988,4 2,1 0,4
09.12.2017 14:00:00 0,0 0,0 11 6 27 15 O 988,0 2,4 0,3
09.12.2017 13:00:00 0,0 0,0 11 6 25 14 O 987,7 1,0 0,8
09.12.2017 12:00:00 0,0 0,0 12 6 27 15 O 987,6 2,0 0,4
09.12.2017 11:00:00 -0,1 -0,1 13 7 27 15 O 987,3 1,5 0,8
09.12.2017 10:00:00 -0,7 -0,7 14 7 30 16 O 987,1 1,7 0,7
09.12.2017 09:00:00 -1,0 -1,1 15 8 33 18 O 986,6 1,0 0,7
09.12.2017 08:00:00 -1,3 -1,4 16 9 34 19 O 986,1 0,5 1,1
09.12.2017 07:00:00 -1,4 -1,5 16 9 36 19 O 985,7 0,5 1,4
09.12.2017 06:00:00 -1,4 -1,5 18 10 37 20 O 985,5 0,6 0,8
09.12.2017 05:00:00 -1,5 -1,6 15 8 36 20 ONO 985,5 1,9 0,8
09.12.2017 04:00:00 -2,0 -2,1 11 6 36 19 ONO 985,9 0,8 0,9
09.12.2017 03:00:00 -1,9 -2,0 14 7 31 17 O 986,0 1,3 0,3
09.12.2017 02:00:00 -2,3 -2,6 14 7 31 17 ONO 985,9 1,1 0,5
09.12.2017 01:00:00 -2,9 -3,2 12 7 26 14 ONO 985,6 1,0 0,4
09.12.2017 00:00:00 -3,2 -3,6 11 6 28 15 ONO 985,5 1,2 0,6
08.12.2017 23:00:00 -3,3 -3,7 14 8 29 16 O 985,5 0,8 0,3
08.12.2017 22:00:00 -3,5 -3,9 16 8 32 17 ONO 985,3 1,3 0,4
08.12.2017 21:00:00 -3,8 -4,2 16 8 29 15 ONO 985,2 1,0 0,4
08.12.2017 20:00:00 -4,1 -4,6 15 8 34 18 ONO 984,7 1,6 0,2
08.12.2017 19:00:00 -4,1 -4,8 18 10 32 18 ONO 984,7 2,1 0,3
08.12.2017 18:00:00 -4,2 -5,0 15 8 32 17 ONO 984,6 1,8 0,1
08.12.2017 17:00:00 -4,3 -5,3 11 6 27 14 O 984,8 2,1 0,1
08.12.2017 16:00:00 -4,4 -5,3 9 5 29 16 O 984,5 3,0 0,1
08.12.2017 15:00:00 -4,4 -5,4 13 7 36 19 O 984,5 3,3 0,1
08.12.2017 14:00:00 -4,3 -5,3 16 9 34 19 O 984,3 5 0,1
08.12.2017 13:00:00 -4,2 -5,2 15 8 36 19 O 984,4 6 0,1
08.12.2017 12:00:00 -4,2 -5,2 17 9 38 20 O 984,5 3,0 0,3
08.12.2017 11:00:00 -4,2 -5,0 18 10 41 22 O 983,8 1,8 0,2
08.12.2017 10:00:00 -4,3 -5,1 18 10 33 18 O 984,7 2,7 0,4
08.12.2017 09:00:00 -4,3 -5,3 15 8 34 18 O 984,3 2,5 0,1
08.12.2017 08:00:00 -4,4 -5,4 16 9 45 24 O 984,0 7 0,1
08.12.2017 07:00:00 -4,2 -5,2 19 10 43 23 O 983,7 3,2 0,1
08.12.2017 06:00:00 -4,4 -5,4 18 10 44 24 O 984,5 4,8 0,1
08.12.2017 05:00:00 -4,7 -5,7 20 11 52 28 O 984,3 6 0,1
08.12.2017 04:00:00 -4,9 -5,7 22 12 44 24 O 985,2 3,0 0,2
08.12.2017 03:00:00 -5,5 -6,3 18 10 43 23 O 986,5 7 0,1
08.12.2017 02:00:00 -6,1 -7,0 15 8 42 23 O 987,5 12 0,1
08.12.2017 01:00:00 -6,3 -7,2 16 8 40 22 O 988,4 7 0,5
08.12.2017 00:00:00 -6,5 -7,3 16 9 39 21 O 989,7 1,1 1,2
07.12.2017 23:00:00 -6,7 -7,5 18 10 39 21 O 990,8 0,6 1,5
07.12.2017 22:00:00 -6,9 -7,7 15 8 30 16 O 992,1 0,7 1,2
07.12.2017 21:00:00 -7,7 -8,5 13 7 26 14 O 993,5 1,3 0,5
07.12.2017 20:00:00 -8,3 -9,2 13 7 23 12 O 994,7 0,9 0,9
07.12.2017 19:00:00 -8,2 -9,1 9 5 17 9 O 995,7 1,4 0,4
07.12.2017 18:00:00 -8,7 -9,6 6 4 15 8 O 996,9 2,2 0,3
07.12.2017 17:00:00 -9,8 -10,9 5 3 11 6 O 997,9 4,4 0,0
07.12.2017 16:00:00 -10,4 -11,4 5 3 11 6 O 999,0 18 0,0
07.12.2017 15:00:00 -10,6 -11,8 4 2 11 6 O 999,9 14 0,0
07.12.2017 14:00:00 -10,9 -12,1 3 2 7 4 O 1001,0 3,7 0,0
07.12.2017 13:00:00 -13,5 -14,9 0 0 2 1 N 1002,3 4,7 0,0
07.12.2017 12:00:00 -13,3 -14,7 0 0 4 2 N 1002,7 1,0 0,0
07.12.2017 11:00:00 -15,1 -16,6 3 2 6 4 ONO 1003,3 2,6 0,0
07.12.2017 10:00:00 -16,2 -17,9 3 1 7 4 NO 1004,2 - 0,0
07.12.2017 09:00:00 -17,5 -19,0 4 2 6 3 ONO 1004,3 27 0,0
07.12.2017 08:00:00 -21,9 -24,3 0 0 3 1 N 1004,8 50 0,0
07.12.2017 07:00:00 -21,7 -24,1 0 0 4 2 N 1004,6 50 0,1
07.12.2017 06:00:00 -20,7 -23,0 3 1 6 3 NNO 1004,5 50 0,0
07.12.2017 05:00:00 -23,6 -26,1 0 0 2 1 N 1005,0 50 0,0
07.12.2017 04:00:00 -24,1 -26,6 0 0 2 1 N 1005,2 50 0,0
07.12.2017 03:00:00 -24,8 -27,4 0 0 3 2 N 1005,5 50 0,0
07.12.2017 02:00:00 -24,8 -27,5 0 0 2 1 N 1005,5 50 0,0
07.12.2017 01:00:00 -24,4 -27,0 0 0 2 1 N 1005,5 50 0,0
07.12.2017 00:00:00 -24,2 -26,8 0 0 1 1 N 1005,5 50 0,0
06.12.2017 23:00:00 -24,1 -26,8 0 0 2 1 N 1005,4 50 0,0
06.12.2017 22:00:00 -23,4 -26,0 0 0 2 1 N 1005,4 43 0,0
06.12.2017 21:00:00 -23,0 -25,6 0 0 1 1 N 1005,1 50 0,0
06.12.2017 20:00:00 -22,4 -24,8 0 0 2 1 N 1005,0 50 0,0
06.12.2017 19:00:00 -22,0 -24,4 0 0 2 1 N 1004,9 50 0,0
06.12.2017 18:00:00 -21,5 -23,9 0 0 1 1 N 1004,7 49 0,0
06.12.2017 17:00:00 -20,8 -23,1 0 0 1 1 N 1004,5 50 0,0
06.12.2017 16:00:00 -19,9 -22,0 0 0 2 1 N 1004,2 50 0,0
06.12.2017 15:00:00 -19,4 -21,7 0 0 2 1 N 1003,9 50 0,0
06.12.2017 14:00:00 -18,3 -20,3 0 0 2 1 N 1003,4 50 0,0
06.12.2017 13:00:00 -16,4 -18,5 0 0 2 1 N 1003,1 50 0,0
06.12.2017 12:00:00 -14,0 -15,4 0 0 4 2 N 1002,7 50 0,0
06.12.2017 11:00:00 -16,0 -17,5 0 0 4 2 N 1002,7 50 0,0
06.12.2017 10:00:00 -20,2 -22,2 0 0 2 1 N 1002,3 50 0,0
06.12.2017 09:00:00 -20,5 -22,9 0 0 3 1 N 1002,0 50 0,0
06.12.2017 08:00:00 -19,9 -22,2 0 0 2 1 N 1001,7 50 0,0
06.12.2017 07:00:00 -19,5 -21,5 0 0 3 1 N 1001,2 50 0,0

tt = temperatuur
td = dauwpunt
ff = windsnelheid
fx = windstoten
dd = windrichting
ppp = luchtdruk
vv = zicht
rr = neerslag

Weerstations in de omgeving